Regional Weather Roundup
Issued by NWS Kansas City/Pleasant Hill, MO

Home | Current Version | Previous Version | Graphics & Text | Print | Product List | Glossary Off
Versions: 1 2 3 4 5 6 7 8 9 10 11 12 13 14 15 16 17 18 19 20 21 22 23 24 25 26 27 28 29 30 31 32 33 34 35 36 37 38 39 40 41 42 43 44 45 46 47 48 49

000
ASUS43 KEAX 051010
RWREAX

WEATHER ROUNDUP FOR EASTERN KANSAS AND NORTHWEST MISSOURI
NATIONAL WEATHER SERVICE KANSAS CITY/PLEASANT HILL MO
500 AM CDT SAT SEP 05 2015

KSZ040-057-103>105-MOZ028-029-037-043-051100-
...KANSAS CITY METROPOLITAN AREA...

CITY           SKY/WX    TMP DP  RH WIND       PRES   REMARKS
K.C. INTL      CLEAR     73  68  84 S9        30.00R
K.C. DOWNTOWN  CLEAR     78  69  73 SW3       29.99R
LEES SUMMIT    CLEAR     75  68  78 S8        30.02R
OLATHE - IXD   CLEAR     72  69  90 S6        30.01R
OLATHE - OJC   CLEAR     71  69  93 S3        30.01R
LAWRENCE       CLEAR     70  68  93 SE7       29.99R

$$

MOZ001>008-011>017-020>025-030>033-038>040-044>046-053-054-051100-
...NORTHERN AND CENTRAL MISSOURI...

CITY           SKY/WX    TMP DP  RH WIND       PRES   REMARKS
ST. JOSEPH     CLEAR     72  69  90 S6        29.98S
MOSBY          SUNNY     68  68 100 CALM      30.01R
WARRENSBURG    CLEAR     72  66  83 SE6       30.02R
WHITEMAN AFB   CLEAR     73  69  86 S5        30.02R
CLINTON        CLEAR     73  70  88 CALM      30.03R
SEDALIA        CLEAR     72  68  87 SE6       30.05R
WARSAW         NOT AVBL
CHILLICOTHE      N/A     71  69  93 CALM      30.03R
KIRKSVILLE     CLEAR     70  67  90 S5        30.05R

$$

MOZ041-047>049-056>058-063>065-088>090-097-051100-
...EASTERN AND SOUTHERN MISSOURI...

CITY           SKY/WX    TMP DP  RH WIND       PRES   REMARKS
ST. LOUIS INTL CLEAR     79  67  66 CALM      30.06R
SPIRIT OF STL  CLEAR     69  69 100 CALM      30.04R
COLUMBIA       CLEAR     72  69  90 SE6       30.06R
JEFFERSON CITY CLEAR     71  68  90 CALM      30.04R
ROLLA          CLEAR     70  67  90 S6        30.06R
OSAGE BEACH    CLEAR     72  66  83 S3        30.06R
SPRINGFIELD    CLEAR     74  66  76 SE9       30.05R
BRANSON        MOCLDY    72  66  83 CALM      30.08R
JOPLIN         CLEAR     74  68  81 S8        30.02R
WEST PLAINS    CLEAR     69  66  90 CALM      30.09R FOG

$$

IAZ060-094-KSZ022-034>040-054-083-096-NEZ052-066-093-051100-
...KANSAS...SOUTHEAST NEBRASKA AND IOWA...

CITY           SKY/WX    TMP DP  RH WIND       PRES   REMARKS
TOPEKA         CLEAR     75  69  81 SE5       29.97S
MANHATTAN      CLEAR     77  69  76 S8        29.95R
EMPORIA        CLEAR     72  68  87 S10       29.98S
CHANUTE        CLEAR     72  69  90 SE6       30.00R
WICHITA        CLEAR     74  68  81 S8        29.97R
OMAHA          MOCLDY    76  69  79 S15       29.93R
LINCOLN        MOCLDY    77  69  76 S13       29.92R
FALLS CITY     CLEAR     74  69  85 S8        29.95S
LAMONI         CLEAR     72  68  87 S5        30.01R
DES MOINES     PTCLDY    74  67  78 S6        29.99R

$$




USA.gov is the U.S. government's official web portal to all federal, state and local government web resources and services.